小惑星2006 RG1

2006 RG1

English version
Home page
Total 6,336 html files since Dec. 4, 1995
Updated on September 18, 2006

---------------------------------------------------------------------

・ プロフィール

符号 2006 RG1
発見日 2006年9月1日
発見光度 19.0等
発見者 Siding Spring Survey

・ 軌道要素

The following orbital elements are taken from MPEC 2006-S01:

Epoch 2006 Sept. 22.0 TT = JDT 2454000.5                MPC
M 359.48164              (2000.0)            P               Q
n   0.00808918     Peri.  344.12967     +0.71367871     -0.37613690
a  24.5772442      Node   305.70532     -0.53703432     -0.83543183
e   0.9179367      Incl.  133.30567     -0.44972973     +0.40071771
P 122              H   15.7           G   0.15           U   5
From 23 observations 2006 Sept. 1-15, mean residual 0".22.

・ 光度変化

        H = 15.7  G = 0.15

---------------------------------------------------------------------

軌道要素はMPCのEphemerides and Orbital Elementsに掲載されたものです。
光度グラフはComet for Windowsで作成したものです。

---------------------------------------------------------------------

Copyright(C) 1995-2008 Seiichi Yoshida (comet@aerith.net). All rights reserved.